sat.trackr.live / text

‹ back to catalog

STARLINK-36087

NORAD 66854 · 2025-281G

PAYLOAD ACTIVE UNKNOWN

§ Identity

Operator
Country
US
Launch date
2025-12-02
Launch site
AFETR
Launch vehicle
Mass (kg)
RCS (m²)

Purposes: comms

External: N2YO · Heavens-Above · Gunter

§ Orbital elements

Epoch: 2026-09-20T05:58:42.150144Z

Period
94.27 min
Inclination
42.9993°
Eccentricity
0.0001525
Mean motion
15.27580330 rev/d
Perigee alt
482.0 km
Apogee alt
484.1 km
Semi-major
6,861.2 km
B*
3.4175e-4
RAAN
324.4636°
Arg perigee
268.5484°
Mean anomaly
91.5193°
Rev number
4,594

§ Raw data

STARLINK-360871 66854U 25281G   26263.24909896  .00009154  00000+0  34175-3 0  99942 66854  42.9993 324.4636 0001525 268.5484  91.5193 15.27580330 45949

JSON: /api/v1/satellites/66854 · /tle

For live sub-satellite position, see the globe view (requires WebGL).

§ Visibility from observer

Set your observer location to see the next 7 days of passes ≥ 10°. The values pass through the URL so the page stays shareable.

No JS? Fill the form by hand. The geolocation button needs JavaScript.